Location: Bucharest
(44.4268°N, 26.1025°E)
Time: 16:07:24
(UTC+03:00)

CUTE 1.7 + AOD 2 - Pass Details

Date: 05 July 2022
Orbit: 589 x 608 km, 97.7° (Epoch: 14 August)

Event Time Altitude Azimuth Distance (km) Brightness Sun altitude
Rises 04:13:18 0° 27° (NNE) 2,846 ? -12.0°
Reaches altitude 10° 04:15:58 10° 44° (NE) 1,935 ? -11.7°
Maximum altitude 04:19:07 20° 93° (E) 1,376 ? -11.3°
Drops below altitude 10° 04:22:14 10° 142° (SE) 1,916 ? -11.0°
Sets 04:24:50 0° 159° (SSE) 2,809 ? -10.6°
